Valentine, NE

7:56 PM CST on November 19, 2019 (GMT -0600)
Miller Field

Weather History for KVTN - October, 2019

Change the Weather History Date:

Sunday, October 20, 2019

  Actual Average Record
Temperature  
Mean Temperature 48 °F 47 °F  
Max Temperature 60 °F 61 °F 91 °F (1947)
Min Temperature 35 °F 32 °F 10 °F (1905)
Degree Days  
Heating Degree Days 18 18  
Month to date heating degree days 369 291  
Since 1 July heating degree days 422 476  
Cooling Degree Days 0 0  
Month to date cooling degree days 0 1  
Year to date cooling degree days 930 818  
Moisture  
Dew Point 31 °F    
Average Humidity 50    
Maximum Humidity 79    
Minimum Humidity 28    
Precipitation  
Precipitation T in 0.03 in 1.16 in (1953)
Month to date precipitation 0.67 0.89  
Year to date precipitation 27.57 18.64  
Snow  
Snow T in 0.10 in 0.80 in (2006)
Month to date snowfall 1.9 0.7  
Since 1 July snowfall 1.9 1.4  
Since 1 September snowfall 1.9 1.4  
Snow Depth 0.00 in    
Sea Level Pressure  
Sea Level Pressure 29.53 in    
Wind  
Wind Speed 8 mph ()    
Max Wind Speed 25 mph    
Max Gust Speed 39 mph    
Visibility 9.9 miles    
Events Rain    
T = Trace of Precipitation, MM = Missing Value Source: Averaged Metar Reports

Daily Weather History Graph

Daily Weather History Graph

Search for Another Location

Airport or City:

Astronomy

Oct. 20, 2019 Rise Set
Actual Time 8:01 AM CDT 6:51 PM CDT
Civil Twilight 7:32 AM CDT 7:20 PM CDT
Nautical Twilight 6:59 AM CDT 7:53 PM CDT
Astronomical Twilight 6:26 AM CDT 8:26 PM CDT
Moon 11:57 PM CDT 2:36 PM CDT
Length of Visible Light 11h 48m
Length of Day
10h 50m
Waning Gibbous, 59% of the Moon is Illuminated
Oct 20
Waning Gibbous
Oct 21
Last Quarter
Oct 27
New
Nov 4
First Quarter
Nov 12
Full

Hourly Weather History & Observations

Time (CDT) Temp. Windchill Dew Point Humidity Pressure Visibility Wind Dir Wind Speed Gust Speed Precip Events Conditions
12:52 AM 37.9 °F - 30.0 °F 73% 29.68 in 8.0 mi Calm Calm - N/A   Scattered Clouds
1:52 AM 42.1 °F - 30.9 °F 65% 29.64 in 10.0 mi Calm Calm - N/A   Partly Cloudy
2:52 AM 41.0 °F 36.4 °F 30.9 °F 67% 29.62 in 10.0 mi East 6.9 mph - N/A   Clear
3:52 AM 50.0 °F - 28.0 °F 43% 29.57 in 10.0 mi SSE 12.7 mph - N/A   Mostly Cloudy
4:52 AM 51.1 °F - 30.0 °F 44% 29.53 in 10.0 mi SSE 13.8 mph 23.0 mph N/A   Mostly Cloudy
5:52 AM 51.1 °F - 32.0 °F 48% 29.52 in 10.0 mi SSE 16.1 mph - N/A   Overcast
6:52 AM 51.1 °F - 33.1 °F 50% 29.54 in 10.0 mi SSE 15.0 mph - N/A   Overcast
7:52 AM 50.0 °F - 33.1 °F 52% 29.53 in 10.0 mi South 12.7 mph - N/A   Scattered Clouds
8:52 AM 51.1 °F - 33.1 °F 50% 29.52 in 10.0 mi SSE 10.4 mph - N/A   Clear
9:52 AM 51.1 °F - 34.0 °F 52% 29.52 in 10.0 mi SSE 10.4 mph - N/A   Mostly Cloudy
10:52 AM 53.1 °F - 34.0 °F 48% 29.53 in 10.0 mi South 12.7 mph - N/A   Scattered Clouds
11:52 AM 55.0 °F - 32.0 °F 42% 29.51 in 10.0 mi SW 9.2 mph - N/A   Mostly Cloudy
12:52 PM 57.9 °F - 30.9 °F 36% 29.51 in 10.0 mi WSW 10.4 mph - N/A   Mostly Cloudy
1:52 PM 59.0 °F - 27.0 °F 29% 29.48 in 10.0 mi WSW 11.5 mph - N/A   Partly Cloudy
2:52 PM 57.0 °F - 26.1 °F 30% 29.47 in 10.0 mi WSW 8.1 mph - N/A   Overcast
3:52 PM 55.0 °F - 26.1 °F 33% 29.48 in 10.0 mi West 9.2 mph - N/A   Overcast
4:52 PM 55.9 °F - 26.1 °F 32% 29.47 in 10.0 mi West 6.9 mph - N/A   Scattered Clouds
5:52 PM 55.9 °F - 25.0 °F 30% 29.47 in 10.0 mi ENE 6.9 mph - N/A   Clear
6:52 PM 50.0 °F - 30.9 °F 48% 29.48 in 10.0 mi ENE 4.6 mph - N/A   Overcast
7:52 PM 48.9 °F - 34.0 °F 56% 29.52 in 9.0 mi SW 9.2 mph 24.2 mph N/A   Overcast
8:52 PM 45.0 °F - 33.1 °F 63% 29.51 in 10.0 mi Calm Calm - N/A   Overcast
9:52 PM 46.0 °F 39.9 °F 35.1 °F 66% 29.52 in 10.0 mi WNW 13.8 mph 20.7 mph N/A   Overcast
10:52 PM 42.1 °F 34.2 °F 35.1 °F 76% 29.54 in 10.0 mi WNW 16.1 mph 23.0 mph N/A   Partly Cloudy
11:52 PM 39.9 °F 29.7 °F 34.0 °F 79% 29.53 in 10.0 mi NW 23.0 mph 34.5 mph 0.00 in Rain Light Rain